Погода в Сосьве

Погода в Сосьве : погода сейчас, прогноз погоды и архив. Всё, что Вы хотите узнать о погоде в Сосьве!

Хотите узнать прогноз погоды в Сосьве? Тогда Вам сюда: Погода в Сосьве

Поиск расширенной информации на нашем сайте:

Другие новости

Новости СМИ2

Главная страница сайта

Новости сайта

03.07.2017

Напоминаем, что на нашем специализированном сайте Метеоцентр.Азия вы можете получить высокодетализированные автоматические прогнозы погоды по пунктам России, СНГ и мира в авиационном формате (включающие направление и скорость ветра, видимость, явления погоды, количество и форму облачности, нижнюю и верхнюю границу облачности).


Погода в Сосьве - сегодня

Время (UTC), дата Ветер
(°,м/с) 
Видим.   Явления Облачность Т
(°С)
Тd
(°С)
f(%) Тe
(°С)
Pmin
(гПа)
dP
(гПа)
Po
(мм)
O2
(г/м3)
Тmin Tmax R s Состояние
почвы
15 15.10.18 160 (Ю) 20000 м    ясно 
-0.5 -2.9 84 1016.4  -0.6  760  307    +5.6       
18 15.10.18 150 (ЮВ) 20000 м    ясно 
-1.5 -2.8 91 -2  1014.8  -1.6  759  308           
21 15.10.18 160 (Ю) 20000 м    10/0 средняя 
[Ac As]
-0.8 -1.6 94 -2  1012.4  -2.4  757  306           
00 16.10.18 180 (Ю) 4000 м  слаб. снег  10/0 средняя 
[As op]
-0.4 -0.6 99 -2  1008.9  -3.5  754  304           
03 16.10.18 210 (ЮЗ) 20000 м  {снег}  10/10 300 м 
[Cu med, cong]
+0.7 -0.3 93 1006.2  -2.7  752  302  -1.5    0.4  равномерный
сухой снег
100% 
06 16.10.18 210 (ЮЗ) 20000 м  {снег}  10/10 300 м 
[Frnb]
+1.6 +0.2 90 +1  1004.4  -1.8  751  301           
09 16.10.18 тихо ()   20000 м  {ливн. осадки}  10/4 600 м кучево-дожд., средняя 
[Cb cap|Ac As]
+3 +1.8 92 +3  1004.3  -0.1  751  299           
12 16.10.18 290 (З) 20000 м  {ливн. осадки}  10/3 600 м средняя 
[Sc diur, vesp|Ac As]
+3.1 +1.9 92 +4  1004.6  0.3  751  299           
18 16.10.18 270 (З) 20000 м    10/0 средняя 
[As op]
+3.1 +1.3 88 +3  1002.5  -1.7  749  298           
21 16.10.18 070 (В) 20000 м    4/0 средняя 
[Ac trans]
+0.3 +0.3 100 +1  1000.6  -2  748  301           
00 17.10.18 070 (В) 10 км  слаб. дождь  10/0 средняя 
[As op]
+0.8 +0.7 99 +1  997.5  -3.1  746  299           
03 17.10.18 тихо ()   10 км  слаб. снег{дождь}  10/0 средняя 
[As op]
+0.2 +0.2 100 996.7  -0.8  745  300  +0.2    равномерный
сухой снег
100% 
06 17.10.18 320 (СЗ) 20000 м  {снег, дождь}  10/0 средняя 
[As op]
+2.1 +2.1 100 +1  996.6  745  298           
09 17.10.18 340 (С) 20000 м    10/0 средняя 
[Ac As]
+3.1 +2.1 93 +3  999.7  747  297           
12 17.10.18 330 (СЗ) 20000 м    4/4 1000 м 
[Cu med, cong]
+3.3 -1.9 69 +3  1002.5  2.8  749  299           
15 17.10.18 300 (СЗ) 20000 м    ясно 
+0.9 -2.7 77 1005.4  2.9  752  302    +4  0.3     
18 17.10.18 330 (СЗ) 20000 м    ясно 
-1 -3.3 84 -2  1007.6  2.2  753  305           
21 17.10.18 330 (СЗ) 20000 м    10/0 средняя 
[As op]
+0.3 -3.2 77 -1  1009.3  1.7  754  304           
00 18.10.18 330 (СЗ) 20000 м    3/0 средняя 
[As op]
-0.8 -3.8 80 -2  1011.2  1.7  756  306           
03 18.10.18 320 (СЗ) 20000 м    ясно 
-3.6 -5 90 -3  1013.4  2.1  758  310  -3.6         
06 18.10.18 360 (С) 20000 м    3/3 600 м 
[Sc]
+0.3 -4.4 71 1014.4  758  306  -4         
09 18.10.18 060 (СВ) 20000 м    4/4 600 м 
[Cu Sc]
+2.3 -6.1 54 +2  1014.1  -0.3  758  304           
12 18.10.18 тихо ()   20000 м    8/5 600 м верхняя 
[Sc|Ci fib]
-0.5 -4.5 74 -1  1013.7  -0.4  758  306           
18 18.10.18 140 (ЮВ) 20000 м    10/0 средняя 
[Ac As]
-1 -4.4 78 1010.9  -1.9  756  306           
21 18.10.18 150 (ЮВ) 20000 м    10/0 средняя 
[Ac und]
-1.3 -5.1 75 -2  1009.1  -1.8  754  306           
Время (UTC), дата Ветер
(°,м/с) 
Видим.   Явления Облачность Т
(°С)
Тd
(°С)
f(%) Тe
(°С)
Pmin
(гПа)
dP
(гПа)
Po
(мм)
O2
(г/м3)
Тmin Tmax R s Состояние
почвы

Для получения пояснительной информации подведите курсор к названию столбца.

ПОГОДА в Сосьве - архив

Всё, что Вы хотите узнать о погоде в Сосьве - удобно и подробно!

Выберите нужную дату (начиная с 1 января 2015* года) и нажмите кнопку "Найти".
Будут отображены архивные сводки погоды по пункту Сосьва, начиная с указанной даты.


Отображать данные в формате CSV (для использования в таблицах Excel)


Внимание! Наш архив погоды предназначен исключительно для личного некоммерческого использования в познавательных целях. Если Вам необходимы официальные справки о состоянии погоды (для производственных, юридических, коммерческих и т.п. целей), обращайтесь в органы Росгидромета.

*Примечание: данная дата относится к архиву по метеостанциям СССР (Россия, СНГ, Балтия).
Архив по метеостанциям Зарубежной Европы и Азии (кроме Китая) хранится 10 дней, по другим регионам земного шара (Китай, Африка, Америка, Австралия, Океания) - 1 день.

Сосьва - район местоположения метеостанции


Название, широта, долгота, высота метеостанции:
Сосьва 63.6°ш. 62.1°д. 28 м над ур. моря [Российская Федерация]

Дополнительная информация

В oтличие oт бoльшинства пoгoдных сайтoв мы публикуем пoдрoбную метеoинфoрмацию в детальнoм прoфессиoнальнoм фoрмате.

Характеристики температуры и влажнoсти вoздуха измеряются на высoте 2 м в тени вдали oт зданий и деревьев.
Скoрoсть ветра измеряется на высoте 10 м (на урoвне рoста челoвека скoрoсть ветра ниже в 1.5-2 раза). Если метеoстанция нахoдится в гoрoде или в лесу, тo скoрoсть ветра занижена на 2-4 м/с пo сравнению с oткрытым местoм. Скoрoсть ветра над акватoриями крупных рек и oзёр, а также на вершинах хoлмoв на 2-5 м/с выше, чем в oбычных услoвиях.
Атмoсфернoе давление в разных тoчках местнoсти мoжет значительнo oтличаться oт давления на метеoстанции, в зависимoсти oт услoвий рельефа (при пoдъёме на 10 м давление пoнижается примернo на 1 мм рт.ст.).